Weather History for Sarasota, FL

Change the Weather History Date:

Wednesday, March 6, 2013

  Actual Average Record
Temperature  
Mean Temperature 61 °F 65 °F  
Max Temperature 67 °F 75 °F 88 °F (1944)
Min Temperature 54 °F 56 °F 37 °F (1960)
Degree Days  
Heating Degree Days 4 2  
Month to date heating degree days 57 17  
Since 1 July heating degree days 302 435  
Cooling Degree Days 0 3  
Month to date cooling degree days 0 18  
Year to date cooling degree days 202 122  
Growing Degree Days 10 (Base 50)    
Moisture  
Dew Point 49 °F    
Average Humidity 67    
Maximum Humidity 93    
Minimum Humidity 36    
Precipitation  
Precipitation 0.02 in 0.14 in 2.10 in (1988)
Month to date precipitation 0.02 0.78  
Year to date precipitation 1.16 5.97  
Sea Level Pressure  
Sea Level Pressure 30.06 in    
Wind  
Wind Speed 15 mph (WNW)    
Max Wind Speed 29 mph    
Max Gust Speed 38 mph    
Visibility 10 miles    
Events Rain    
T = Trace of Precipitation, MM = Missing Value Source: NWS Daily Summary

Daily Weather History Graph

Daily Weather History Graph

Search for Another Location

Airport:

Trip Planner

Search our weather history database for the weather conditions in past years. The results will help you decide how hot, cold, wet, or windy it might be!

Date:

Astronomy

Mar. 06, 2013 Rise Set
Actual Time 6:49 AM EST 6:34 PM EST
Civil Twilight 6:25 AM EST 6:57 PM EST
Nautical Twilight 5:58 AM EST 7:24 PM EST
Astronomical Twilight 5:31 AM EST 7:51 PM EST
Moon 2:35 AM EST (3/6) 1:35 PM EST (3/6)
Length of Visible Light 12h 31m
Length of Day
11h 44m
Waning Crescent, 30% of the Moon is Illuminated
Mar 6
Waning Crescent
Mar 11
New
Mar 19
First Quarter
Mar 27
Full
Apr 3
Last Quarter

Hourly Weather History & Observations

Time (EST) Temp. Dew Point Humidity Pressure Visibility Wind Dir Wind Speed Gust Speed Precip Events Conditions
12:53 AM 66.0 °F 62.1 °F 87% 30.04 in 10.0 mi SSW 13.8 mph - N/A   Overcast
1:53 AM 66.0 °F 62.1 °F 87% 30.02 in 10.0 mi SSW 15.0 mph - N/A   Scattered Clouds
2:53 AM 66.0 °F 62.1 °F 87% 30.00 in 10.0 mi SSW 10.4 mph - N/A   Scattered Clouds
3:53 AM 66.0 °F 62.1 °F 87% 29.98 in 10.0 mi SSW 11.5 mph - N/A   Mostly Cloudy
4:34 AM 66.2 °F 62.6 °F 88% 29.98 in 10.0 mi SW 13.8 mph 21.9 mph 0.00 in   Overcast
4:48 AM 66.2 °F 62.6 °F 88% 29.99 in 6.0 mi SW 11.5 mph 21.9 mph 0.01 in Rain Light Rain
4:53 AM 66.0 °F 63.0 °F 90% 29.99 in 7.0 mi SW 12.7 mph - 0.01 in Rain Light Rain
5:08 AM 66.2 °F 62.6 °F 88% 29.99 in 9.0 mi WSW 9.2 mph - 0.01 in Rain Light Rain
5:36 AM 66.2 °F 64.4 °F 94% 30.00 in 10.0 mi West 11.5 mph - 0.01 in   Overcast
5:53 AM 66.0 °F 63.0 °F 90% 29.99 in 10.0 mi West 11.5 mph - 0.01 in   Overcast
6:14 AM 60.8 °F 57.2 °F 88% 30.03 in 10.0 mi NNW 17.3 mph 31.1 mph 0.00 in Rain Light Rain
6:53 AM 59.0 °F 55.0 °F 87% 30.04 in 10.0 mi NNW 17.3 mph 24.2 mph 0.00 in   Overcast
7:53 AM 55.9 °F 45.0 °F 67% 30.09 in 10.0 mi North 17.3 mph 25.3 mph N/A   Partly Cloudy
8:53 AM 55.9 °F 42.1 °F 60% 30.12 in 10.0 mi North 20.7 mph 28.8 mph N/A   Clear
9:53 AM 59.0 °F 42.1 °F 53% 30.13 in 10.0 mi North 18.4 mph 25.3 mph N/A   Partly Cloudy
10:53 AM 61.0 °F 42.1 °F 50% 30.14 in 10.0 mi NNW 17.3 mph 25.3 mph N/A   Clear
11:53 AM 63.0 °F 41.0 °F 45% 30.12 in 10.0 mi NW 20.7 mph 25.3 mph N/A   Clear
12:53 PM 63.0 °F 36.0 °F 37% 30.10 in 10.0 mi NNW 18.4 mph 26.5 mph N/A   Clear
1:53 PM 64.0 °F 39.0 °F 40% 30.09 in 10.0 mi NW 21.9 mph 29.9 mph N/A   Clear
2:53 PM 63.0 °F 39.9 °F 43% 30.07 in 10.0 mi NW 21.9 mph 29.9 mph N/A   Clear
3:53 PM 62.1 °F 39.9 °F 44% 30.07 in 10.0 mi NNW 19.6 mph 25.3 mph N/A   Clear
4:53 PM 59.0 °F 39.9 °F 49% 30.07 in 10.0 mi NW 19.6 mph 26.5 mph N/A   Clear
5:53 PM 57.9 °F 39.0 °F 49% 30.08 in 10.0 mi NW 19.6 mph 24.2 mph N/A   Clear
6:53 PM 55.9 °F 39.0 °F 53% 30.09 in 10.0 mi NW 11.5 mph - N/A   Clear
7:53 PM 55.9 °F 42.1 °F 60% 30.09 in 10.0 mi NW 13.8 mph - N/A   Clear
8:53 PM 55.0 °F 42.1 °F 62% 30.11 in 10.0 mi NNW 11.5 mph - N/A   Clear
9:53 PM 55.0 °F 42.1 °F 62% 30.14 in 10.0 mi NNW 10.4 mph - N/A   Clear
10:53 PM 55.0 °F 41.0 °F 59% 30.15 in 10.0 mi North 6.9 mph - N/A   Clear
11:53 PM 55.0 °F 41.0 °F 59% 30.14 in 10.0 mi NNW 8.1 mph - N/A   Clear